Regional Weather Roundup
Issued by NWS

Home | Current Version | Previous Version | Text Only | Print | Product List | Glossary On
Versions: 1 2 3 4 5 6 7 8 9 10 11 12 13 14 15 16 17 18 19 20 21 22 23 24 25 26 27 28 29 30 31 32 33 34 35 36 37 38 39 40 41 42 43 44 45 46 47 48 49 50
000
ASUS45 KABQ 292310
RWRNM
NEW MEXICO REGIONAL WEATHER ROUNDUP
NATIONAL WEATHER SERVICE ALBUQUERQUE NM
500 PM MDT MON AUG 29 2016

NOTE: "FAIR" MEANS FEW OR NO CLOUDS BELOW 12,000 FEET AGL WITH NO
       SIGNIFICANT WEATHER OR OBSTRUCTIONS TO VISION.

      THIS PRODUCT IS RELEASED AS TWO VERSIONS.  ONE VERSION NEAR
      THE TOP OF THE HOUR CONTAINING PRELIMINARY DATA FROM ALBUQUERQUE
      AND OTHER STATIONS.  A FINAL VERSION WITH ADDITIONAL DATA IS
      ISSUED ABOUT 10 MINUTES AFTER THE HOUR.

NMZ501-503-504-510>518-300000-
NORTHWEST PLATEAU/NORTHCENTRAL MOUNTAINS

CITY           SKY/WX    TMP DP  RH WIND       PRES   REMARKS
FARMINGTON     FAIR      81  40  23 N18G25    30.20F
SANTA FE       FAIR      74  41  30 SE9       30.31R
TAOS           PTSUNNY   66  39  37 SE20      30.35F
ANGEL FIRE     CLOUDY    53  48  84 E15       30.47F

$$
NMZ402-403-502-505>509-300000-
WESTCENTRAL MOUNTAINS/SOUTHWEST MOUNTAINS

CITY           SKY/WX    TMP DP  RH WIND       PRES   REMARKS
GALLUP         FAIR      78  38  23 CALM      30.27F
GRANTS         FAIR      74  40  29 NW10G17   30.29F
SILVER CITY    FAIR      76  50  40 NW12      30.19S

$$
NMZ407-409-411-412-300000-
SOUTHERN DESERTS

CITY           SKY/WX    TMP DP  RH WIND       PRES   REMARKS
DEMING         FAIR      87  51  28 NE13      30.09F
LAS CRUCES     FAIR      85  50  30 E5        30.12F
HOLLOMAN AFB   FAIR      83  55  37 S8        30.09F
ALAMOGORDO     FAIR      84  52  32 N6        30.11F
T OR C         CLOUDY    85  42  22 SE10      30.13S

$$
NMZ519>523-300000-
CENTRAL VALLEYS/CENTRAL HIGHLANDS

CITY           SKY/WX    TMP DP  RH WIND       PRES   REMARKS
ALBUQUERQUE    PTSUNNY   78  47  33 E25G33    30.22R
DOUBLE EAGLE   PTSUNNY   79  45  29 NE7       30.25R
MORIARTY ARPT  RAIN      55  51  86 SW16G25   30.37R
CLINES CORNERS FAIR      65  47  52 E12       30.37R
BELEN          PTSUNNY   79  43  28 SE13      30.19S
SOCORRO        FAIR      82  44  27 E10G20    30.17R

$$
NMZ524>526-539-540-300000-
SOUTHCENTRAL MOUNTAINS

CITY           SKY/WX    TMP DP  RH WIND       PRES   REMARKS
RUIDOSO          N/A     64  55  72 SE5       30.37R

$$
NMZ527>531-300000-
NORTHEAST HIGHLANDS/NORTHEAST PLAINS

CITY           SKY/WX    TMP DP  RH WIND       PRES   REMARKS
LAS VEGAS      PTSUNNY   68  50  52 E13       30.36S
RATON          CLOUDY    69  50  50 SE9G20    30.33S
CLAYTON        CLOUDY    68  59  73 SE8       30.30S

$$
NMZ532>537-300000-
EASTCENTRAL PLAINS

CITY           SKY/WX    TMP DP  RH WIND       PRES   REMARKS
TUCUMCARI      CLOUDY    74  57  55 E12       30.22S
CANNON AFB     LGT RAIN  64  64 100 E10       30.25R FOG
CLOVIS AIRPORT CLOUDY    66  61  82 E7        30.25S

$$
NMZ028-029-538-300000-
SOUTHEAST PLAINS

CITY           SKY/WX    TMP DP  RH WIND       PRES   REMARKS
ROSWELL        PTSUNNY   80  60  50 E14G24    30.16S
ARTESIA        FAIR      81  63  54 NE18      30.13F
CARLSBAD       FAIR      83  60  45 E8        30.09F
HOBBS          LGT RAIN  66  66 100 E15G21    30.18F


$$




USA.gov is the U.S. government's official web portal to all federal, state and local government web resources and services.